| time (UTC) | temp C | wind direction | speed KPH | gust KPH | rain 1hr cm | rain 24hr cm | rain mn cm | humidity % | barometer mb |
| 20260905161226 | 20 | 10 | 1.6 | 12.9 | 0.00 | 0.00 | 0.00 | 79 | 1015.5 |
| 20260905160225 | 20 | 356 | 12.9 | 14.5 | 0.00 | 0.00 | 0.00 | 77 | 1015.3 |
| 20260905155225 | 20 | 314 | 4.8 | 14.5 | 0.00 | 0.00 | 0.00 | 80 | 1015.4 |
| 20260905154221 | 20 | 328 | 11.3 | 14.5 | 0.00 | 0.00 | 0.00 | 78 | 1015.5 |
| 20260905153218 | 19 | 345 | 4.8 | 12.9 | 0.00 | 0.00 | 0.00 | 81 | 1015.4 |
| 20260905152213 | 19 | 30 | 3.2 | 8.0 | 0.00 | 0.00 | 0.00 | 82 | 1015.5 |
| 20260905151209 | 19 | 353 | 9.7 | 12.9 | 0.00 | 0.00 | 0.00 | 82 | 1015.5 |
| 20260905150208 | 19 | 0 | 8.0 | 20.9 | 0.00 | 0.00 | 0.00 | 82 | 1015.4 |
| 20260905145207 | 19 | 44 | 3.2 | 14.5 | 0.00 | 0.00 | 0.00 | 82 | 1015.6 |
| 20260905144206 | 19 | 104 | 12.9 | 14.5 | 0.00 | 0.00 | 0.00 | 84 | 1015.3 |
| 20260905143205 | 18 | 41 | 4.8 | 16.1 | 0.00 | 0.00 | 0.00 | 85 | 1015.4 |
| 20260905142204 | 18 | 96 | 9.7 | 11.3 | 0.00 | 0.00 | 0.00 | 87 | 1015.5 |
| 20260905141201 | 18 | 87 | 12.9 | 17.7 | 0.00 | 0.00 | 0.00 | 87 | 1015.3 |
| 20260905140156 | 18 | 43 | 11.3 | 22.5 | 0.00 | 0.00 | 0.00 | 86 | 1015.5 |
| 20260905135153 | 17 | 348 | 17.7 | 19.3 | 0.00 | 0.00 | 0.00 | 90 | 1015.4 |
| 20260905134151 | 16 | 74 | 11.3 | 12.9 | 0.00 | 0.00 | 0.00 | 92 | 1015.4 |
| 20260905133147 | 17 | 355 | 4.8 | 8.0 | 0.00 | 0.00 | 0.00 | 92 | 1015.4 |
| 20260905132148 | 17 | 16 | 3.2 | 9.7 | 0.00 | 0.00 | 0.00 | 93 | 1015.5 |
| 20260905131143 | 17 | 26 | 4.8 | 22.5 | 0.00 | 0.00 | 0.00 | 94 | 1015.4 |
| 20260905130143 | 18 | 313 | 6.4 | 11.3 | 0.00 | 0.00 | 0.00 | 91 | 1015.4 |
| 20260905125140 | 18 | 302 | 8.0 | 9.7 | 0.00 | 0.00 | 0.00 | 91 | 1015.3 |
| 20260905124137 | 17 | 343 | 4.8 | 14.5 | 0.00 | 0.00 | 0.00 | 94 | 1015.1 |
| 20260905123136 | 17 | 20 | 3.2 | 11.3 | 0.00 | 0.00 | 0.00 | 93 | 1015.2 |
| 20260905122130 | 17 | 40 | 4.8 | 6.4 | 0.00 | 0.00 | 0.00 | 92 | 1015.4 |
| 20260905121126 | 17 | 43 | 1.6 | 4.8 | 0.00 | 0.00 | 0.00 | 93 | 1015.1 |
| 20260905120120 | 16 | 335 | 3.2 | 8.0 | 0.00 | 0.00 | 0.00 | 95 | 1015.4 |
| 20260905115120 | 16 | 345 | 4.8 | 4.8 | 0.00 | 0.00 | 0.00 | 95 | 1015.3 |
| 20260905114118 | 16 | 2 | 4.8 | 6.4 | 0.00 | 0.00 | 0.00 | 97 | 1015.3 |
| 20260905113115 | 15 | 15 | 3.2 | 8.0 | 0.00 | 0.00 | 0.00 | 99 | 1015.1 |
| 20260905112111 | 15 | 257 | 0.0 | 3.2 | 0.00 | 0.00 | 0.00 | 99 | 1015.0 |
| 20260905111110 | 15 | 53 | 0.0 | 3.2 | 0.00 | 0.00 | 0.00 | 99 | 1014.9 |
| 20260905110105 | 14 | 109 | 1.6 | 3.2 | 0.00 | 0.00 | 0.00 | 99 | 1014.6 |
| 20260905105105 | 14 | 96 | 1.6 | 3.2 | 0.00 | 0.00 | 0.00 | 99 | 1014.8 |
| 20260905104100 | 14 | 13 | 0.0 | 3.2 | 0.00 | 0.00 | 0.00 | 99 | 1014.4 |
| 20260905103058 | 14 | 65 | 0.0 | 3.2 | 0.00 | 0.00 | 0.00 | 99 | 1014.4 |
| 20260905102056 | 15 | 139 | 0.0 | 3.2 | 0.00 | 0.00 | 0.00 | 99 | 1014.5 |
| 20260905101052 | 15 | 38 | 3.2 | 4.8 | 0.00 | 0.00 | 0.00 | 99 | 1014.1 |
| 20260905100048 | 15 | 29 | 0.0 | 1.6 | 0.00 | 0.00 | 0.00 | 99 | 1014.3 |
| 20260905095044 | 15 | 7 | 3.2 | 3.2 | 0.00 | 0.00 | 0.00 | 99 | 1014.1 |
| 20260905094044 | 15 | 346 | 0.0 | 3.2 | 0.00 | 0.00 | 0.00 | 99 | 1014.3 |
| 20260905093041 | 15 | 31 | 3.2 | 3.2 | 0.00 | 0.00 | 0.00 | 99 | 1014.1 |
| 20260905092037 | 15 | 61 | 3.2 | 4.8 | 0.00 | 0.00 | 0.00 | 99 | 1014.0 |
| 20260905091036 | 15 | 29 | 0.0 | 4.8 | 0.00 | 0.00 | 0.00 | 98 | 1013.9 |
| 20260905090032 | 15 | 357 | 0.0 | 3.2 | 0.00 | 0.00 | 0.00 | 98 | 1014.0 |
| 20260905085026 | 15 | 144 | 1.6 | 4.8 | 0.00 | 0.00 | 0.00 | 97 | 1014.3 |
| 20260905084026 | 15 | 18 | 3.2 | 3.2 | 0.00 | 0.00 | 0.00 | 97 | 1014.3 |
| 20260905083024 | 15 | 69 | 0.0 | 1.6 | 0.00 | 0.00 | 0.00 | 97 | 1014.4 |
| 20260905082021 | 15 | 217 | 0.0 | 4.8 | 0.00 | 0.00 | 0.00 | 96 | 1014.3 |
| 20260905081020 | 15 | 350 | 1.6 | 3.2 | 0.00 | 0.00 | 0.00 | 96 | 1014.4 |
| 20260905080016 | 15 | 202 | 0.0 | 0.0 | 0.00 | 0.00 | 0.00 | 97 | 1014.5 |
| 20260905075014 | 15 | 313 | 0.0 | 1.6 | 0.00 | 0.00 | 0.00 | 96 | 1014.4 |
| 20260905074011 | 15 | 207 | 1.6 | 1.6 | 0.00 | 0.00 | 0.00 | 96 | 1014.4 |
| 20260905073008 | 16 | 258 | 0.0 | 1.6 | 0.00 | 0.00 | 0.00 | 95 | 1014.3 |
| 20260905072003 | 16 | 214 | 1.6 | 3.2 | 0.00 | 0.00 | 0.00 | 94 | 1014.3 |
| 20260905070959 | 16 | 283 | 0.0 | 1.6 | 0.00 | 0.00 | 0.00 | 94 | 1014.6 |
| 20260905065955 | 16 | 142 | 0.0 | 1.6 | 0.00 | 0.00 | 0.00 | 93 | 1014.6 |
| 20260905064954 | 16 | 143 | 0.0 | 3.2 | 0.00 | 0.00 | 0.00 | 94 | 1014.8 |
| 20260905063950 | 16 | 170 | 0.0 | 3.2 | 0.00 | 0.00 | 0.00 | 95 | 1014.7 |
| 20260905062947 | 17 | 216 | 0.0 | 3.2 | 0.00 | 0.00 | 0.00 | 93 | 1014.8 |
| 20260905061942 | 17 | 307 | 1.6 | 3.2 | 0.00 | 0.00 | 0.00 | 93 | 1014.9 |
| 20260905060941 | 17 | 24 | 0.0 | 3.2 | 0.00 | 0.00 | 0.00 | 91 | 1014.9 |
| 20260905055937 | 17 | 48 | 0.0 | 3.2 | 0.00 | 0.00 | 0.00 | 91 | 1015.0 |
| 20260905054937 | 17 | 8 | 3.2 | 6.4 | 0.00 | 0.00 | 0.00 | 90 | 1015.1 |
| 20260905053932 | 17 | 5 | 1.6 | 6.4 | 0.00 | 0.00 | 0.00 | 90 | 1015.1 |
| 20260905052929 | 17 | 23 | 0.0 | 3.2 | 0.00 | 0.00 | 0.00 | 91 | 1015.2 |
| 20260905051928 | 17 | 63 | 3.2 | 3.2 | 0.00 | 0.00 | 0.00 | 90 | 1015.2 |
| 20260905050927 | 18 | 19 | 0.0 | 3.2 | 0.00 | 0.00 | 0.00 | 91 | 1015.4 |
| 20260905045924 | 18 | 242 | 0.0 | 3.2 | 0.00 | 0.00 | 0.00 | 91 | 1015.6 |
| 20260905044920 | 18 | 20 | 0.0 | 4.8 | 0.00 | 0.00 | 0.00 | 92 | 1015.5 |
| 20260905043920 | 18 | 1 | 0.0 | 3.2 | 0.00 | 0.00 | 0.00 | 92 | 1015.6 |
| 20260905042920 | 18 | 0 | 4.8 | 4.8 | 0.00 | 0.00 | 0.00 | 91 | 1015.5 |
| 20260905041916 | 18 | 348 | 1.6 | 3.2 | 0.00 | 0.00 | 0.00 | 91 | 1015.4 |
| 20260905040912 | 18 | 31 | 3.2 | 4.8 | 0.00 | 0.00 | 0.00 | 91 | 1015.4 |
| 20260905035911 | 18 | 348 | 3.2 | 4.8 | 0.00 | 0.00 | 0.00 | 91 | 1015.3 |
| 20260905034909 | 18 | 354 | 4.8 | 4.8 | 0.00 | 0.00 | 0.00 | 91 | 1015.5 |
| 20260905033909 | 18 | 352 | 6.4 | 8.0 | 0.00 | 0.00 | 0.00 | 91 | 1015.4 |
| 20260905032904 | 18 | 354 | 3.2 | 6.4 | 0.00 | 0.00 | 0.00 | 92 | 1015.3 |
| 20260905031900 | 18 | 344 | 3.2 | 9.7 | 0.00 | 0.00 | 0.00 | 93 | 1015.4 |
| 20260905030857 | 18 | 345 | 3.2 | 8.0 | 0.00 | 0.00 | 0.00 | 92 | 1015.2 |
| 20260905025858 | 18 | 4 | 3.2 | 6.4 | 0.00 | 0.00 | 0.00 | 92 | 1015.1 |
| 20260905024856 | 18 | 339 | 4.8 | 4.8 | 0.00 | 0.00 | 0.00 | 91 | 1015.1 |
| 20260905023851 | 18 | 30 | 1.6 | 3.2 | 0.00 | 0.00 | 0.00 | 90 | 1015.5 |
| 20260905022851 | 18 | 102 | 0.0 | 4.8 | 0.00 | 0.00 | 0.00 | 89 | 1015.3 |
| 20260905021847 | 19 | 47 | 1.6 | 6.4 | 0.00 | 0.00 | 0.00 | 89 | 1015.3 |
| 20260905020843 | 19 | 11 | 3.2 | 6.4 | 0.00 | 0.00 | 0.00 | 88 | 1015.6 |
| 20260905015843 | 19 | 39 | 1.6 | 6.4 | 0.00 | 0.00 | 0.00 | 89 | 1015.4 |
| 20260905014842 | 19 | 357 | 3.2 | 6.4 | 0.00 | 0.00 | 0.00 | 90 | 1015.4 |
| 20260905013838 | 19 | 12 | 3.2 | 6.4 | 0.00 | 0.00 | 0.00 | 87 | 1015.4 |
| 20260905012835 | 20 | 349 | 3.2 | 8.0 | 0.00 | 0.00 | 0.00 | 86 | 1015.4 |
| 20260905011833 | 20 | 353 | 3.2 | 6.4 | 0.00 | 0.00 | 0.00 | 84 | 1015.3 |
| 20260905010828 | 20 | 0 | 3.2 | 6.4 | 0.00 | 0.00 | 0.00 | 83 | 1015.4 |
| 20260905005826 | 20 | 4 | 1.6 | 3.2 | 0.00 | 0.00 | 0.00 | 84 | 1015.6 |
| 20260905004821 | 20 | 28 | 3.2 | 3.2 | 0.00 | 0.00 | 0.00 | 87 | 1015.4 |
| 20260905003818 | 20 | 359 | 0.0 | 3.2 | 0.00 | 0.00 | 0.00 | 84 | 1015.4 |
| 20260905002814 | 20 | 73 | 1.6 | 4.8 | 0.00 | 0.00 | 0.00 | 84 | 1015.2 |
| 20260905001809 | 20 | 22 | 1.6 | 4.8 | 0.00 | 0.00 | 0.00 | 85 | 1014.9 |
| 20260905000804 | 20 | 47 | 1.6 | 3.2 | 0.00 | 0.00 | 0.00 | 86 | 1014.9 |
| 20260904235800 | 20 | 0 | 0.0 | 6.4 | 0.00 | 0.00 | 0.00 | 85 | 1014.9 |
| 20260904234756 | 20 | 269 | 0.0 | 4.8 | 0.00 | 0.00 | 0.00 | 86 | 1014.9 |
| 20260904233753 | 20 | 17 | 3.2 | 4.8 | 0.00 | 0.00 | 0.00 | 85 | 1014.7 |
| 20260904232751 | 20 | 340 | 1.6 | 3.2 | 0.00 | 0.00 | 0.00 | 87 | 1014.5 |
| 20260904231748 | 21 | 100 | 0.0 | 1.6 | 0.00 | 0.00 | 0.00 | 83 | 1014.9 |
| 20260904230744 | 21 | 0 | 0.0 | 0.0 | 0.00 | 0.00 | 0.00 | 84 | 1014.9 |
| 20260904225744 | 21 | 180 | 0.0 | 1.6 | 0.00 | 0.00 | 0.00 | 82 | 1014.6 |
| 20260904224742 | 21 | 19 | 1.6 | 3.2 | 0.00 | 0.00 | 0.00 | 81 | 1014.9 |
| 20260904223737 | 21 | 15 | 0.0 | 1.6 | 0.00 | 0.00 | 0.00 | 80 | 1014.9 |
| 20260904222734 | 21 | 37 | 0.0 | 4.8 | 0.00 | 0.00 | 0.00 | 79 | 1014.7 |
| 20260904221735 | 21 | 0 | 3.2 | 6.4 | 0.00 | 0.00 | 0.00 | 77 | 1014.8 |
| 20260904220730 | 22 | 50 | 3.2 | 4.8 | 0.00 | 0.00 | 0.00 | 77 | 1014.8 |
| 20260904215731 | 22 | 10 | 0.0 | 6.4 | 0.00 | 0.00 | 0.00 | 76 | 1015.0 |
| 20260904214727 | 22 | 325 | 8.0 | 9.7 | 0.00 | 0.00 | 0.00 | 74 | 1014.8 |
| 20260904213727 | 23 | 348 | 6.4 | 9.7 | 0.00 | 0.00 | 0.00 | 73 | 1014.9 |
| 20260904212724 | 23 | 349 | 6.4 | 9.7 | 0.00 | 0.00 | 0.00 | 74 | 1014.9 |
| 20260904211719 | 23 | 324 | 4.8 | 11.3 | 0.00 | 0.00 | 0.00 | 74 | 1014.8 |
| 20260904210714 | 23 | 55 | 4.8 | 9.7 | 0.00 | 0.00 | 0.00 | 73 | 1014.9 |
| 20260904205711 | 24 | 354 | 4.8 | 12.9 | 0.00 | 0.00 | 0.00 | 73 | 1014.6 |
| 20260904204709 | 23 | 57 | 3.2 | 9.7 | 0.00 | 0.00 | 0.00 | 75 | 1014.9 |
| 20260904203707 | 25 | 249 | 3.2 | 4.8 | 0.00 | 0.00 | 0.00 | 74 | 1014.9 |
| 20260904202705 | 23 | 323 | 4.8 | 11.3 | 0.00 | 0.00 | 0.00 | 73 | 1014.9 |
| 20260904201701 | 24 | 339 | 1.6 | 4.8 | 0.00 | 0.00 | 0.00 | 74 | 1014.7 |
| 20260904200702 | 24 | 1 | 8.0 | 14.5 | 0.00 | 0.00 | 0.00 | 71 | 1015.1 |
| 20260904195701 | 23 | 7 | 6.4 | 9.7 | 0.00 | 0.00 | 0.00 | 75 | 1015.3 |
| 20260904194701 | 23 | 0 | 11.3 | 12.9 | 0.00 | 0.00 | 0.00 | 75 | 1015.4 |
| 20260904193656 | 23 | 53 | 3.2 | 16.1 | 0.00 | 0.00 | 0.00 | 76 | 1015.5 |
| 20260904192653 | 24 | 17 | 6.4 | 16.1 | 0.00 | 0.00 | 0.00 | 74 | 1015.6 |
| 20260904191651 | 24 | 359 | 6.4 | 6.4 | 0.00 | 0.00 | 0.00 | 73 | 1015.4 |
| 20260904190649 | 23 | 332 | 3.2 | 6.4 | 0.00 | 0.00 | 0.00 | 76 | 1015.6 |
| 20260904185647 | 23 | 347 | 6.4 | 9.7 | 0.00 | 0.00 | 0.00 | 75 | 1016.0 |
| 20260904184645 | 23 | 18 | 0.0 | 8.0 | 0.00 | 0.00 | 0.00 | 76 | 1015.8 |
| 20260904183643 | 23 | 343 | 4.8 | 6.4 | 0.00 | 0.00 | 0.00 | 78 | 1016.0 |
| 20260904182638 | 23 | 271 | 1.6 | 9.7 | 0.00 | 0.00 | 0.00 | 75 | 1016.4 |
| 20260904181635 | 23 | 75 | 1.6 | 8.0 | 0.00 | 0.00 | 0.00 | 75 | 1016.3 |
| 20260904180630 | 23 | 196 | 3.2 | 4.8 | 0.00 | 0.00 | 0.00 | 75 | 1016.4 |
| 20260904175631 | 23 | 53 | 8.0 | 11.3 | 0.00 | 0.00 | 0.00 | 76 | 1016.3 |
| 20260904174629 | 23 | 286 | 4.8 | 9.7 | 0.00 | 0.00 | 0.00 | 74 | 1016.4 |
| 20260904173627 | 23 | 10 | 6.4 | 17.7 | 0.00 | 0.00 | 0.00 | 74 | 1016.5 |
| 20260904172624 | 23 | 338 | 3.2 | 11.3 | 0.00 | 0.00 | 0.00 | 78 | 1016.6 |
| 20260904171624 | 22 | 0 | 8.0 | 9.7 | 0.00 | 0.00 | 0.00 | 77 | 1016.7 |
| 20260904170622 | 22 | 318 | 4.8 | 12.9 | 0.00 | 0.00 | 0.00 | 79 | 1016.7 |
| 20260904165621 | 23 | 59 | 9.7 | 14.5 | 0.00 | 0.00 | 0.00 | 78 | 1016.7 |
| 20260904164621 | 23 | 55 | 12.9 | 12.9 | 0.00 | 0.00 | 0.00 | 78 | 1016.8 |
| 20260904163618 | 22 | 305 | 4.8 | 14.5 | 0.00 | 0.00 | 0.00 | 79 | 1016.9 |
| 20260904162613 | 22 | 349 | 9.7 | 9.7 | 0.00 | 0.00 | 0.00 | 79 | 1016.6 |
| 20260904161609 | 22 | 292 | 3.2 | 12.9 | 0.00 | 0.00 | 0.00 | 79 | 1016.9 |